Weather History for KWMC - October, 2011

Change the Weather History Date:

Monday, October 24, 2011

  Actual Average Record
Temperature  
Mean Temperature 50 °F 45 °F  
Max Temperature 71 °F 63 °F 85 °F (1959)
Min Temperature 28 °F 27 °F 11 °F (2001)
Degree Days  
Heating Degree Days 15 20  
Month to date heating degree days 306 371  
Since 1 July heating degree days 368 575  
Cooling Degree Days 0 0  
Month to date cooling degree days 2 0  
Year to date cooling degree days 449 541  
Moisture  
Dew Point 29 °F    
Average Humidity 49    
Maximum Humidity 76    
Minimum Humidity 22    
Precipitation  
Precipitation 0.11 in 0.02 in 1.58 in (1951)
Month to date precipitation 0.66 0.50  
Year to date precipitation 8.68 6.30  
Snow  
Snow 0.00 in 0.00 in 0.40 in (2012)
Month to date snowfall 0.0 0.3  
Since 1 July snowfall 0.0 0.3  
Since 1 September snowfall 0.0 0.3  
Snow Depth 0.00 in    
Sea Level Pressure  
Sea Level Pressure 30.03 in    
Wind  
Wind Speed 7 mph (NNW)    
Max Wind Speed 23 mph    
Max Gust Speed 30 mph    
Visibility 10 miles    
Events Rain , Thunderstorm    
T = Trace of Precipitation, MM = Missing Value Source: NWS Daily Summary

Daily Weather History Graph

Daily Weather History Graph

Search for Another Location

Airport or City:

Trip Planner

Search our weather history database for the weather conditions in past years. The results will help you decide how hot, cold, wet, or windy it might be!

Date:

Astronomy

Oct. 24, 2011 Rise Set
Actual Time 7:12 AM PDT 5:57 PM PDT
Civil Twilight 6:44 AM PDT 6:25 PM PDT
Nautical Twilight 6:12 AM PDT 6:57 PM PDT
Astronomical Twilight 5:40 AM PDT 7:29 PM PDT
Moon 4:35 AM PDT (10/24) 4:26 PM PDT (10/24)
Length of Visible Light 11h 41m
Length of Day
10h 45m
Waning Crescent, 6% of the Moon is Illuminated
Oct 24
Waning Crescent
Oct 26
New
Nov 2
First Quarter
Nov 10
Full
Nov 18
Last Quarter

Hourly Weather History & Observations

Time (PDT) Temp. Windchill Dew Point Humidity Pressure Visibility Wind Dir Wind Speed Gust Speed Precip Events Conditions
12:56 AM 37.9 °F 34.4 °F 19.9 °F 48% 29.99 in 10.0 mi SSW 4.6 mph - N/A   Clear
1:56 AM 34.0 °F - 19.0 °F 54% 29.99 in 10.0 mi Calm Calm - N/A   Clear
2:56 AM 36.0 °F 32.1 °F 19.9 °F 52% 29.98 in 10.0 mi SE 4.6 mph - N/A   Clear
3:56 AM 36.0 °F 33.3 °F 21.0 °F 55% 29.96 in 10.0 mi SE 3.5 mph - N/A   Clear
4:56 AM 32.0 °F - 19.0 °F 59% 29.98 in 10.0 mi Calm Calm - N/A   Clear
5:56 AM 30.0 °F - 17.1 °F 59% 30.02 in 10.0 mi Calm Calm - N/A   Clear
6:56 AM 34.0 °F 31.0 °F 21.0 °F 59% 30.02 in 10.0 mi SSE 3.5 mph - N/A   Clear
7:56 AM 37.0 °F - 21.0 °F 52% 30.05 in 10.0 mi Calm Calm - N/A   Clear
8:56 AM 46.9 °F - 21.9 °F 37% 30.05 in 10.0 mi Calm Calm - N/A   Clear
9:56 AM 55.9 °F - 25.0 °F 30% 30.01 in 10.0 mi Calm Calm - N/A   Clear
10:56 AM 63.0 °F - 27.0 °F 26% 30.00 in 10.0 mi Calm Calm - N/A   Clear
11:56 AM 66.9 °F - 28.0 °F 23% 29.99 in 10.0 mi West 15.0 mph - N/A   Clear
12:56 PM 69.1 °F - 28.9 °F 22% 29.95 in 10.0 mi Variable 5.8 mph 16.1 mph N/A   Clear
1:56 PM 70.0 °F - 30.0 °F 23% 29.94 in 10.0 mi West 12.7 mph - N/A   Partly Cloudy
2:56 PM 68.0 °F - 30.0 °F 24% 29.94 in 10.0 mi WNW 10.4 mph 19.6 mph N/A   Clear
3:56 PM 64.9 °F - 33.1 °F 31% 29.96 in 10.0 mi NNW 15.0 mph 21.9 mph N/A   Clear
4:56 PM 57.2 °F - 35.6 °F 44% 30.03 in 10.0 mi NNW 18.4 mph 28.8 mph N/A   Clear
5:56 PM 55.9 °F - 35.1 °F 45% 30.03 in 10.0 mi North 12.7 mph 19.6 mph N/A   Partly Cloudy
6:56 PM 54.0 °F - 35.1 °F 49% 30.04 in 10.0 mi North 10.4 mph - N/A   Mostly Cloudy
7:52 PM 51.8 °F - 33.8 °F 50% 30.11 in 10.0 mi NNW 16.1 mph 29.9 mph N/A Thunderstorm Thunderstorm
7:56 PM 46.9 °F - 37.0 °F 68% 30.09 in 4.0 mi NNW 18.4 mph 29.9 mph 0.01 in Rain , Thunderstorm Thunderstorms and Rain
8:09 PM 44.6 °F 38.8 °F 39.2 °F 81% 30.11 in 10.0 mi North 11.5 mph - 0.07 in Rain Light Rain
8:29 PM 44.6 °F 38.8 °F 39.2 °F 81% 30.12 in 10.0 mi NW 11.5 mph - 0.07 in Thunderstorm Thunderstorm
8:45 PM 46.4 °F 42.4 °F 41.0 °F 81% 30.13 in 8.0 mi North 8.1 mph - 0.07 in Rain Rain
8:56 PM 46.0 °F 41.9 °F 42.1 °F 86% 30.08 in 8.0 mi NE 8.1 mph - 0.09 in Rain Light Rain
9:56 PM 43.0 °F 38.2 °F 37.9 °F 82% 30.10 in 10.0 mi WNW 8.1 mph - 0.01 in   Overcast
10:56 PM 43.0 °F 38.8 °F 36.0 °F 76% 30.10 in 10.0 mi NW 6.9 mph - 0.00 in   Overcast
11:56 PM 42.1 °F 36.1 °F 30.0 °F 62% 30.10 in 10.0 mi North 10.4 mph - N/A   Overcast